Location: Frydek-Mistek
(49.6830°N, 18.3330°E)
Time: 05:20:12
(UTC+02:00)

ISS - Pass Details

Date: 19 May 2021
Orbit: 417 x 422 km, 51.6° (Epoch: 13 June)

Event Time Altitude Azimuth Distance (km) Brightness Sun altitude
Rises 22:06:10 0° 261° (W) 2,361 0.5 -12.2°
Reaches altitude 10° 22:08:16 10° 264° (W) 1,499 -0.5 -12.4°
Maximum altitude 22:11:38 71° 349° (NNW) 449 -3.5 -12.7°
Drops below altitude 10° 22:15:00 10° 74° (ENE) 1,505 -1.1 -13.0°
Sets 22:17:07 0° 76° (ENE) 2,372 -0.2 -13.2°
